{"data":{"norad_id":68111,"epoch":"2026-05-25T04:07:47.559072Z","epoch_age_seconds":63621,"freshness":"FRESH","line1":"1 68111U 26044L   26145.17207823  .00033782  00000+0  10434-2 0  9997","line2":"2 68111  97.2845 105.7919 0001725  93.5029 266.6411 15.33465057 13301","mean_motion":15.33465057,"eccentricity":0.0001725,"inclination_deg":97.2845,"raan_deg":105.7919,"arg_perigee_deg":93.5029,"mean_anomaly_deg":266.6411,"bstar":0.0010434,"rev_number":1330,"period_min":93.90497640795,"perigee_km":464.30297507169,"apogee_km":466.66402414405,"semimajor_km":6843.6204996079,"source":"CELESTRAK","updated_at":"2026-05-25T13:38:21.842839Z"}}